SWA3219 KMDW-KALB

Flight info

Callsign SWA3219
Flight time 1h 35m
Altitude 39000
Route LEWKE GIJ EVOTE NELLS KEEHO JHW Q82 LOXXE ALB
Aircraft B738/M-SADE2E3GIJ4RWZ/LB1D1

Departure

Time 2026-04-26 08:44
Airport Chicago Midway International Airport (KMDW)

Arrival

Time 2026-04-26 10:20
Airport Albany International Airport (KALB)
Time Latitude Longitude Altitude Speed Heading
2026-04-26 08:19 41.78865 -87.74405 613 ft 0 kts 141°
2026-04-26 08:36 41.78867 -87.74406 613 ft 1 kts 141°
2026-04-26 08:36 41.78878 -87.74418 613 ft 2 kts 140°
2026-04-26 08:36 41.78890 -87.74431 613 ft 2 kts 149°
2026-04-26 08:36 41.78904 -87.74438 613 ft 2 kts 170°
2026-04-26 08:37 41.78919 -87.74438 613 ft 2 kts 189°
2026-04-26 08:37 41.78933 -87.74432 613 ft 2 kts 208°
2026-04-26 08:37 41.78942 -87.74425 613 ft 0 kts 221°
2026-04-26 08:37 41.78946 -87.74419 613 ft 0 kts 224°
2026-04-26 08:39 41.78944 -87.74422 613 ft 1 kts 224°
2026-04-26 08:39 41.78914 -87.74464 613 ft 8 kts 233°
2026-04-26 08:39 41.78880 -87.74538 613 ft 12 kts 237°
2026-04-26 08:40 41.78822 -87.74625 613 ft 12 kts 223°
2026-04-26 08:40 41.78761 -87.74701 613 ft 11 kts 222°
2026-04-26 08:40 41.78702 -87.74771 613 ft 10 kts 210°
2026-04-26 08:40 41.78638 -87.74815 613 ft 10 kts 218°
2026-04-26 08:41 41.78576 -87.74892 613 ft 13 kts 224°
2026-04-26 08:41 41.78505 -87.74984 613 ft 15 kts 223°
2026-04-26 08:41 41.78426 -87.75082 613 ft 15 kts 221°
2026-04-26 08:41 41.78349 -87.75179 616 ft 15 kts 223°
2026-04-26 08:42 41.78267 -87.75282 616 ft 17 kts 223°
2026-04-26 08:42 41.78176 -87.75401 617 ft 17 kts 225°
2026-04-26 08:42 41.78093 -87.75504 619 ft 15 kts 222°
2026-04-26 08:42 41.78011 -87.75604 621 ft 17 kts 221°
2026-04-26 08:43 41.77929 -87.75713 623 ft 15 kts 236°
2026-04-26 08:43 41.77914 -87.75844 623 ft 13 kts 269°
2026-04-26 08:43 41.77935 -87.75897 623 ft 4 kts 11°
2026-04-26 08:43 41.77984 -87.75846 623 ft 18 kts 43°
2026-04-26 08:44 41.78265 -87.75485 617 ft 93 kts 43°
2026-04-26 08:44 41.78898 -87.74686 618 ft 152 kts 43°
2026-04-26 08:44 41.79666 -87.73697 1177 ft 157 kts 49°
2026-04-26 08:44 41.80430 -87.72718 1961 ft 148 kts 47°
2026-04-26 08:45 41.81196 -87.71799 2402 ft 153 kts 47°
2026-04-26 08:45 41.81985 -87.70833 2905 ft 154 kts 48°
2026-04-26 08:45 41.82770 -87.69858 3408 ft 154 kts 47°
2026-04-26 08:45 41.83544 -87.68891 3906 ft 157 kts 47°
2026-04-26 08:46 41.84349 -87.67866 4395 ft 163 kts 53°
2026-04-26 08:46 41.84730 -87.66463 4729 ft 173 kts 96°
2026-04-26 08:46 41.84370 -87.64884 5135 ft 184 kts 108°
2026-04-26 08:46 41.84010 -87.63161 5470 ft 202 kts 101°
2026-04-26 08:47 41.83741 -87.61240 5912 ft 217 kts 99°
2026-04-26 08:47 41.83481 -87.59206 6352 ft 230 kts 99°
2026-04-26 08:47 41.83194 -87.57028 6838 ft 242 kts 99°
2026-04-26 08:47 41.82888 -87.54773 7500 ft 251 kts 100°
2026-04-26 08:48 41.82567 -87.52421 7985 ft 266 kts 100°
2026-04-26 08:48 41.82230 -87.49953 8588 ft 276 kts 100°
2026-04-26 08:48 41.81881 -87.47402 9339 ft 281 kts 100°
2026-04-26 08:48 41.81524 -87.44795 10051 ft 288 kts 101°
2026-04-26 08:49 41.81156 -87.42114 10603 ft 302 kts 101°
2026-04-26 08:49 41.80766 -87.39282 11075 ft 318 kts 101°
2026-04-26 08:49 41.80358 -87.36330 11562 ft 333 kts 101°
2026-04-26 08:49 41.79933 -87.33256 12259 ft 339 kts 102°
2026-04-26 08:50 41.79504 -87.30142 13033 ft 344 kts 102°
2026-04-26 08:50 41.79065 -87.26971 13810 ft 350 kts 103°
2026-04-26 08:50 41.78619 -87.23752 14640 ft 353 kts 103°
2026-04-26 08:50 41.78175 -87.20554 15411 ft 358 kts 103°
2026-04-26 08:51 41.77256 -87.13961 17040 ft 365 kts 103°
2026-04-26 08:51 41.76787 -87.10611 17839 ft 368 kts 103°
2026-04-26 08:51 41.76388 -87.07250 18585 ft 373 kts 99°
2026-04-26 08:52 41.76186 -87.03748 19260 ft 379 kts 94°
2026-04-26 08:52 41.76152 -87.00205 19908 ft 383 kts 91°
2026-04-26 08:52 41.76197 -86.96667 20637 ft 386 kts 90°
2026-04-26 08:52 41.76266 -86.93050 21281 ft 390 kts 89°
2026-04-26 08:53 41.76335 -86.89449 21866 ft 395 kts 89°
2026-04-26 08:53 41.76396 -86.85750 22444 ft 399 kts 89°
2026-04-26 08:53 41.76448 -86.82010 22998 ft 403 kts 89°
2026-04-26 08:53 41.76492 -86.78280 23589 ft 406 kts 89°
2026-04-26 08:54 41.76533 -86.74501 24130 ft 410 kts 89°
2026-04-26 08:54 41.76571 -86.70695 24726 ft 413 kts 89°
2026-04-26 08:54 41.76607 -86.66814 25251 ft 417 kts 89°
2026-04-26 08:54 41.76641 -86.62946 25800 ft 421 kts 89°
2026-04-26 08:55 41.76674 -86.59019 26296 ft 426 kts 89°
2026-04-26 08:55 41.76706 -86.55066 26846 ft 428 kts 89°
2026-04-26 08:55 41.76736 -86.51063 27403 ft 432 kts 89°
2026-04-26 08:55 41.76765 -86.47005 27880 ft 436 kts 88°
2026-04-26 08:56 41.76792 -86.42957 28333 ft 441 kts 88°
2026-04-26 08:56 41.76819 -86.38879 28895 ft 443 kts 88°
2026-04-26 08:56 41.76895 -86.34753 29308 ft 447 kts 86°
2026-04-26 08:56 41.77170 -86.30556 29779 ft 449 kts 81°
2026-04-26 08:57 41.77678 -86.26448 30192 ft 453 kts 78°
2026-04-26 08:57 41.78325 -86.22340 30683 ft 454 kts 76°
2026-04-26 08:57 41.79047 -86.18173 31096 ft 458 kts 75°
2026-04-26 08:57 41.79792 -86.14038 31540 ft 460 kts 75°
2026-04-26 08:58 41.80537 -86.09908 32187 ft 457 kts 75°
2026-04-26 08:58 41.81267 -86.05808 32842 ft 454 kts 75°
2026-04-26 08:58 41.81992 -86.01698 33308 ft 455 kts 75°
2026-04-26 08:58 41.82708 -85.97585 33842 ft 454 kts 75°
2026-04-26 08:59 41.83421 -85.93441 34393 ft 452 kts 75°
2026-04-26 08:59 41.84118 -85.89354 34891 ft 451 kts 75°
2026-04-26 08:59 41.84808 -85.85278 35283 ft 451 kts 75°
2026-04-26 08:59 41.85504 -85.81157 35618 ft 450 kts 75°
2026-04-26 09:00 41.86193 -85.77061 35933 ft 451 kts 75°
2026-04-26 09:00 41.86881 -85.72955 36195 ft 453 kts 75°
2026-04-26 09:00 41.87572 -85.68821 36545 ft 452 kts 75°
2026-04-26 09:00 41.88259 -85.64699 36880 ft 453 kts 75°
2026-04-26 09:01 41.88942 -85.60589 37275 ft 453 kts 75°
2026-04-26 09:01 41.89633 -85.56422 37666 ft 453 kts 75°
2026-04-26 09:01 41.90306 -85.52350 38012 ft 453 kts 75°
2026-04-26 09:01 41.90992 -85.48187 38320 ft 453 kts 75°
2026-04-26 09:02 41.91671 -85.44063 38589 ft 455 kts 75°
2026-04-26 09:02 41.92345 -85.39958 38922 ft 454 kts 75°
2026-04-26 09:02 41.93019 -85.35845 39095 ft 456 kts 75°
2026-04-26 09:03 41.94373 -85.27481 39121 ft 459 kts 77°
2026-04-26 09:03 41.95165 -85.19019 39121 ft 455 kts 86°
2026-04-26 09:04 41.95246 -85.10567 39124 ft 457 kts 89°
2026-04-26 09:04 41.95151 -85.02029 39144 ft 459 kts 90°
2026-04-26 09:05 41.95056 -84.93499 39101 ft 459 kts 89°
2026-04-26 09:05 41.94985 -84.84995 39134 ft 458 kts 89°
2026-04-26 09:06 41.94926 -84.76408 39138 ft 460 kts 89°
2026-04-26 09:06 41.94870 -84.67863 39126 ft 459 kts 89°
2026-04-26 09:07 41.94810 -84.59311 39132 ft 459 kts 89°
2026-04-26 09:07 41.94744 -84.50780 39132 ft 458 kts 89°
2026-04-26 09:08 41.94672 -84.42239 39120 ft 459 kts 89°
2026-04-26 09:08 41.94595 -84.33631 39114 ft 459 kts 90°
2026-04-26 09:09 41.94510 -84.25042 39105 ft 460 kts 89°
2026-04-26 09:09 41.94419 -84.16516 39155 ft 459 kts 90°
2026-04-26 09:10 41.94321 -84.07967 39128 ft 460 kts 89°
2026-04-26 09:10 41.94218 -83.99358 39126 ft 459 kts 89°
2026-04-26 09:11 41.94109 -83.90838 39142 ft 461 kts 89°
2026-04-26 09:11 41.93993 -83.82214 39142 ft 460 kts 89°
2026-04-26 09:12 41.93869 -83.73650 39112 ft 461 kts 89°
2026-04-26 09:12 41.93737 -83.65022 39101 ft 463 kts 89°
2026-04-26 09:13 41.93601 -83.56439 39132 ft 463 kts 89°
2026-04-26 09:13 41.93463 -83.47849 39111 ft 462 kts 89°
2026-04-26 09:14 41.93402 -83.39238 39124 ft 461 kts 88°
2026-04-26 09:14 41.93383 -83.30601 39132 ft 463 kts 89°
2026-04-26 09:15 41.93358 -83.21958 39120 ft 462 kts 89°
2026-04-26 09:15 41.93311 -83.13399 39115 ft 462 kts 89°
2026-04-26 09:16 41.93256 -83.04756 39104 ft 464 kts 89°
2026-04-26 09:16 41.93192 -82.96082 39123 ft 463 kts 89°
2026-04-26 09:17 41.93122 -82.87491 39090 ft 464 kts 89°
2026-04-26 09:17 41.93045 -82.78760 39070 ft 465 kts 89°
2026-04-26 09:18 41.92960 -82.70152 39098 ft 465 kts 89°
2026-04-26 09:18 41.92871 -82.61410 39093 ft 466 kts 89°
2026-04-26 09:19 41.92777 -82.52748 39097 ft 465 kts 89°
2026-04-26 09:19 41.92672 -82.44064 39080 ft 465 kts 89°
2026-04-26 09:20 41.92561 -82.35425 39072 ft 465 kts 88°
2026-04-26 09:20 41.92447 -82.26759 39084 ft 466 kts 89°
2026-04-26 09:21 41.92322 -82.18084 39081 ft 466 kts 89°
2026-04-26 09:21 41.92188 -82.09400 39076 ft 465 kts 89°
2026-04-26 09:22 41.92054 -82.00725 39091 ft 467 kts 89°
2026-04-26 09:22 41.91913 -81.91999 38998 ft 465 kts 89°
2026-04-26 09:22 41.91843 -81.87667 39125 ft 465 kts 89°
2026-04-26 09:23 41.91887 -81.83328 39102 ft 466 kts 84°
2026-04-26 09:23 41.92551 -81.74766 39059 ft 461 kts 79°
2026-04-26 09:24 41.93530 -81.66208 39048 ft 464 kts 78°
2026-04-26 09:24 41.94541 -81.57613 39076 ft 463 kts 78°
2026-04-26 09:25 41.95506 -81.49116 39052 ft 463 kts 78°
2026-04-26 09:25 41.96453 -81.40543 39041 ft 467 kts 78°
2026-04-26 09:26 41.97383 -81.31957 39068 ft 460 kts 78°
2026-04-26 09:26 41.98302 -81.23404 39102 ft 462 kts 79°
2026-04-26 09:27 41.99213 -81.14874 39071 ft 467 kts 78°
2026-04-26 09:27 42.00124 -81.06233 39105 ft 465 kts 78°
2026-04-26 09:28 42.01028 -80.97586 39088 ft 467 kts 78°
2026-04-26 09:28 42.01926 -80.88990 39055 ft 466 kts 78°
2026-04-26 09:29 42.02819 -80.80364 39075 ft 466 kts 78°
2026-04-26 09:29 42.03696 -80.71773 39071 ft 465 kts 79°
2026-04-26 09:30 42.04572 -80.63148 39095 ft 465 kts 79°
2026-04-26 09:30 42.05443 -80.54538 39054 ft 464 kts 78°
2026-04-26 09:31 42.06302 -80.45980 39066 ft 463 kts 78°
2026-04-26 09:31 42.07156 -80.37422 39083 ft 463 kts 79°
2026-04-26 09:32 42.08005 -80.28851 39095 ft 463 kts 79°
2026-04-26 09:32 42.08839 -80.20329 39134 ft 464 kts 79°
2026-04-26 09:33 42.09671 -80.11735 39154 ft 465 kts 80°
2026-04-26 09:33 42.10498 -80.03116 39121 ft 461 kts 80°
2026-04-26 09:34 42.11312 -79.94589 39110 ft 462 kts 80°
2026-04-26 09:34 42.12127 -79.85999 39089 ft 462 kts 80°
2026-04-26 09:35 42.12925 -79.77504 39093 ft 459 kts 80°
2026-04-26 09:35 42.13723 -79.68955 39096 ft 461 kts 79°
2026-04-26 09:36 42.14522 -79.60394 39053 ft 460 kts 79°
2026-04-26 09:36 42.15306 -79.51918 39091 ft 458 kts 79°
2026-04-26 09:37 42.16085 -79.43398 39116 ft 459 kts 80°
2026-04-26 09:37 42.16849 -79.34835 39097 ft 456 kts 80°
2026-04-26 09:38 42.17604 -79.26369 39114 ft 457 kts 81°
2026-04-26 09:38 42.18357 -79.17899 39152 ft 458 kts 81°
2026-04-26 09:39 42.19130 -79.09419 39098 ft 457 kts 79°
2026-04-26 09:39 42.20154 -79.01023 39068 ft 453 kts 76°
2026-04-26 09:40 42.21275 -78.92706 39081 ft 454 kts 76°
2026-04-26 09:40 42.22384 -78.84355 39065 ft 453 kts 77°
2026-04-26 09:41 42.23468 -78.75985 39051 ft 455 kts 77°
2026-04-26 09:41 42.24534 -78.67602 39061 ft 454 kts 77°
2026-04-26 09:42 42.25579 -78.59244 39061 ft 453 kts 77°
2026-04-26 09:42 42.26620 -78.50853 39096 ft 451 kts 77°
2026-04-26 09:43 42.27649 -78.42511 39087 ft 454 kts 77°
2026-04-26 09:43 42.28669 -78.34157 39065 ft 452 kts 78°
2026-04-26 09:44 42.29691 -78.25778 39088 ft 455 kts 78°
2026-04-26 09:44 42.30710 -78.17351 39074 ft 453 kts 78°
2026-04-26 09:45 42.31712 -78.09010 39078 ft 454 kts 78°
2026-04-26 09:45 42.32717 -78.00617 39058 ft 453 kts 78°
2026-04-26 09:46 42.33716 -77.92203 39088 ft 455 kts 78°
2026-04-26 09:46 42.34706 -77.83799 39078 ft 454 kts 78°
2026-04-26 09:47 42.35687 -77.75432 39062 ft 454 kts 79°
2026-04-26 09:47 42.36680 -77.66895 39103 ft 461 kts 78°
2026-04-26 09:48 42.37653 -77.58398 39091 ft 456 kts 79°
2026-04-26 09:48 42.38613 -77.49992 39104 ft 456 kts 79°
2026-04-26 09:49 42.39590 -77.41500 39068 ft 458 kts 79°
2026-04-26 09:49 42.40562 -77.32970 39079 ft 462 kts 80°
2026-04-26 09:50 42.41531 -77.24393 39084 ft 460 kts 80°
2026-04-26 09:50 42.42487 -77.15850 39069 ft 456 kts 80°
2026-04-26 09:51 42.43429 -77.07368 39093 ft 459 kts 80°
2026-04-26 09:51 42.44375 -76.98798 39096 ft 462 kts 80°
2026-04-26 09:52 42.45303 -76.90270 39101 ft 459 kts 80°
2026-04-26 09:52 42.46680 -76.77480 39097 ft 463 kts 80°
2026-04-26 09:53 42.47609 -76.68816 39102 ft 462 kts 80°
2026-04-26 09:53 42.48526 -76.60250 39145 ft 460 kts 80°
2026-04-26 09:54 42.49440 -76.51650 39146 ft 463 kts 80°
2026-04-26 09:54 42.50339 -76.43078 38563 ft 461 kts 80°
2026-04-26 09:55 42.50787 -76.38799 37961 ft 461 kts 79°
2026-04-26 09:55 42.51228 -76.34558 37528 ft 456 kts 81°
2026-04-26 09:55 42.51664 -76.30339 36958 ft 455 kts 80°
2026-04-26 09:55 42.52104 -76.26070 36245 ft 457 kts 80°
2026-04-26 09:56 42.52540 -76.21838 35743 ft 455 kts 80°
2026-04-26 09:56 42.52972 -76.17640 35255 ft 453 kts 79°
2026-04-26 09:56 42.53403 -76.13426 34689 ft 453 kts 79°
2026-04-26 09:56 42.53831 -76.09213 34105 ft 452 kts 79°
2026-04-26 09:57 42.54254 -76.05032 33551 ft 451 kts 79°
2026-04-26 09:57 42.54678 -76.00832 33006 ft 449 kts 78°
2026-04-26 09:57 42.55099 -75.96658 32419 ft 447 kts 79°
2026-04-26 09:57 42.55512 -75.92517 31897 ft 445 kts 78°
2026-04-26 09:58 42.55922 -75.88409 31329 ft 442 kts 78°
2026-04-26 09:58 42.56335 -75.84289 30790 ft 439 kts 79°
2026-04-26 09:58 42.56738 -75.80228 30232 ft 432 kts 78°
2026-04-26 09:58 42.57127 -75.76265 29670 ft 426 kts 79°
2026-04-26 09:59 42.57470 -75.72314 29073 ft 422 kts 81°
2026-04-26 09:59 42.57632 -75.68378 28438 ft 420 kts 84°
2026-04-26 09:59 42.57650 -75.64443 27880 ft 415 kts 86°
2026-04-26 09:59 42.57608 -75.60576 27332 ft 409 kts 87°
2026-04-26 10:00 42.57548 -75.56735 26837 ft 402 kts 87°
2026-04-26 10:00 42.57497 -75.53017 26350 ft 395 kts 86°
2026-04-26 10:00 42.57456 -75.49325 25885 ft 389 kts 86°
2026-04-26 10:00 42.57425 -75.45702 25396 ft 383 kts 85°
2026-04-26 10:01 42.57401 -75.42119 24945 ft 377 kts 85°
2026-04-26 10:01 42.57380 -75.38584 24479 ft 372 kts 85°
2026-04-26 10:01 42.57361 -75.35144 24017 ft 367 kts 84°
2026-04-26 10:01 42.57341 -75.31710 23544 ft 365 kts 85°
2026-04-26 10:02 42.57323 -75.28300 23094 ft 362 kts 85°
2026-04-26 10:02 42.57304 -75.24876 22619 ft 360 kts 85°
2026-04-26 10:02 42.57284 -75.21491 22142 ft 358 kts 84°
2026-04-26 10:02 42.57263 -75.18162 21698 ft 356 kts 84°
2026-04-26 10:03 42.57239 -75.14837 21253 ft 353 kts 85°
2026-04-26 10:03 42.57215 -75.11503 20811 ft 351 kts 85°
2026-04-26 10:03 42.57190 -75.08219 20369 ft 348 kts 84°
2026-04-26 10:03 42.57164 -75.04967 19951 ft 346 kts 85°
2026-04-26 10:04 42.57137 -75.01739 19503 ft 344 kts 84°
2026-04-26 10:04 42.57110 -74.98525 19074 ft 341 kts 84°
2026-04-26 10:04 42.57083 -74.95344 18744 ft 335 kts 84°
2026-04-26 10:04 42.57055 -74.92172 18344 ft 332 kts 84°
2026-04-26 10:05 42.57027 -74.89083 17936 ft 330 kts 84°
2026-04-26 10:05 42.57001 -74.85947 17396 ft 332 kts 84°
2026-04-26 10:05 42.56974 -74.82836 16952 ft 330 kts 85°
2026-04-26 10:05 42.56945 -74.79753 16522 ft 327 kts 85°
2026-04-26 10:06 42.56914 -74.76726 16129 ft 324 kts 85°
2026-04-26 10:06 42.56881 -74.73655 15700 ft 322 kts 85°
2026-04-26 10:06 42.56870 -74.70651 15306 ft 318 kts 85°
2026-04-26 10:06 42.56846 -74.67684 14885 ft 316 kts 88°
2026-04-26 10:07 42.56742 -74.64706 14477 ft 314 kts 89°
2026-04-26 10:07 42.56669 -74.61802 14088 ft 309 kts 85°
2026-04-26 10:07 42.56641 -74.58927 13696 ft 306 kts 88°
2026-04-26 10:07 42.56590 -74.56042 13308 ft 302 kts 86°
2026-04-26 10:08 42.56580 -74.53230 12926 ft 299 kts 86°
2026-04-26 10:08 42.56581 -74.50434 12552 ft 296 kts 86°
2026-04-26 10:08 42.56571 -74.47663 12168 ft 293 kts 86°
2026-04-26 10:08 42.56546 -74.44892 11789 ft 291 kts 87°
2026-04-26 10:09 42.56513 -74.42184 11423 ft 287 kts 88°
2026-04-26 10:09 42.56476 -74.39507 11058 ft 285 kts 88°
2026-04-26 10:09 42.56441 -74.36854 10692 ft 282 kts 88°
2026-04-26 10:09 42.56408 -74.34191 10328 ft 279 kts 88°
2026-04-26 10:10 42.56374 -74.31573 9971 ft 276 kts 89°
2026-04-26 10:10 42.56336 -74.29017 9754 ft 268 kts 89°
2026-04-26 10:10 42.56296 -74.26512 9440 ft 265 kts 89°
2026-04-26 10:10 42.56258 -74.24039 9094 ft 263 kts 89°
2026-04-26 10:11 42.56221 -74.21592 8768 ft 260 kts 89°
2026-04-26 10:11 42.56184 -74.19125 8446 ft 257 kts 89°
2026-04-26 10:11 42.56147 -74.16721 8131 ft 253 kts 89°
2026-04-26 10:11 42.56109 -74.14359 7815 ft 252 kts 89°
2026-04-26 10:12 42.56076 -74.11973 7523 ft 254 kts 89°
2026-04-26 10:12 42.56049 -74.09565 7200 ft 254 kts 89°
2026-04-26 10:12 42.56012 -74.07192 6857 ft 251 kts 90°
2026-04-26 10:12 42.55967 -74.04850 6546 ft 247 kts 90°
2026-04-26 10:13 42.55922 -74.02544 6249 ft 244 kts 90°
2026-04-26 10:13 42.55888 -74.00264 5965 ft 241 kts 89°
2026-04-26 10:13 42.55856 -73.97962 5666 ft 243 kts 90°
2026-04-26 10:13 42.55814 -73.95670 5356 ft 246 kts 90°
2026-04-26 10:14 42.55772 -73.93380 5121 ft 240 kts 90°
2026-04-26 10:14 42.55736 -73.91157 4920 ft 233 kts 89°
2026-04-26 10:14 42.55708 -73.88996 4731 ft 226 kts 89°
2026-04-26 10:14 42.55671 -73.86935 4545 ft 216 kts 90°
2026-04-26 10:15 42.55629 -73.84921 4218 ft 209 kts 90°
2026-04-26 10:15 42.55673 -73.82993 3821 ft 205 kts 79°
2026-04-26 10:15 42.56233 -73.81280 3428 ft 197 kts 49°
2026-04-26 10:15 42.57311 -73.80313 3134 ft 180 kts 19°
2026-04-26 10:16 42.58498 -73.80039 2871 ft 166 kts
2026-04-26 10:16 42.59611 -73.79948 2639 ft 157 kts
2026-04-26 10:16 42.60690 -73.79931 2574 ft 152 kts
2026-04-26 10:16 42.61760 -73.79949 2604 ft 157 kts
2026-04-26 10:17 42.62870 -73.79981 2528 ft 161 kts
2026-04-26 10:17 42.63994 -73.80021 2282 ft 160 kts
2026-04-26 10:17 42.65092 -73.80064 2063 ft 155 kts
2026-04-26 10:17 42.66116 -73.80106 1889 ft 140 kts 360°
2026-04-26 10:18 42.67063 -73.80145 1641 ft 133 kts 359°
2026-04-26 10:18 42.67967 -73.80183 1478 ft 130 kts 359°
2026-04-26 10:18 42.68878 -73.80221 1305 ft 133 kts 359°
2026-04-26 10:18 42.69816 -73.80260 1119 ft 133 kts 358°
2026-04-26 10:19 42.70738 -73.80299 929 ft 132 kts 358°
2026-04-26 10:19 42.71656 -73.80338 746 ft 132 kts 358°
2026-04-26 10:19 42.72586 -73.80373 562 ft 133 kts 359°
2026-04-26 10:19 42.73504 -73.80415 389 ft 134 kts 358°
2026-04-26 10:20 42.74428 -73.80462 282 ft 119 kts 358°
2026-04-26 10:20 42.75003 -73.80483 278 ft 51 kts 358°
2026-04-26 10:20 42.75255 -73.80492 278 ft 20 kts 359°
2026-04-26 10:20 42.75345 -73.80530 278 ft 12 kts 289°
2026-04-26 10:21 42.75328 -73.80634 275 ft 11 kts 214°
2026-04-26 10:21 42.75241 -73.80640 275 ft 13 kts 177°
2026-04-26 10:21 42.75137 -73.80634 275 ft 15 kts 179°
2026-04-26 10:21 42.75017 -73.80630 276 ft 19 kts 178°
2026-04-26 10:22 42.74886 -73.80624 277 ft 16 kts 178°
2026-04-26 10:22 42.74810 -73.80679 278 ft 12 kts 235°
2026-04-26 10:22 42.74765 -73.80756 276 ft 7 kts 225°
2026-04-26 10:22 42.74733 -73.80798 275 ft 3 kts 223°
2026-04-26 10:23 42.74731 -73.80801 275 ft 0 kts 223°